Weather History for Aberdeen / Amory, MS

Change the Weather History Date:

Monday, October 7, 2013

  Actual Average (KCBM) Record (KCBM)
Temperature  
Mean Temperature 60 °F -  
Max Temperature 75 °F 76 °F 89 °F (1997)
Min Temperature 46 °F 54 °F 40 °F (2010)
Degree Days  
Heating Degree Days 4    
Growing Degree Days 10 (Base 50)    
Moisture  
Dew Point 44 °F    
Average Humidity 55    
Maximum Humidity 60    
Minimum Humidity 53    
Precipitation  
Precipitation 0.00 in - - ()
Sea Level Pressure  
Sea Level Pressure 30.03 in    
Wind  
Wind Speed 4 mph (North)    
Max Wind Speed 14 mph    
Max Gust Speed 18 mph    
Visibility 8 miles    
Events      
Averages and records for this station are not official NWS values.
T = Trace of Precipitation, MM = Missing Value Source: NWS Daily Summary

Daily Weather History Graph

Daily Weather History Graph

Search for Another Location

Airport:

Trip Planner

Search our weather history database for the weather conditions in past years. The results will help you decide how hot, cold, wet, or windy it might be!

Date:

Astronomy

Oct. 07, 2013 Rise Set
Actual Time 6:52 AM CDT 6:29 PM CDT
Civil Twilight 6:27 AM CDT 6:54 PM CDT
Nautical Twilight 5:59 AM CDT 7:23 PM CDT
Astronomical Twilight 5:30 AM CDT 7:52 PM CDT
Moon 9:34 AM CDT (10/7) 8:23 PM CDT (10/7)
Length of Visible Light 12h 26m
Length of Day
11h 36m
Waxing Crescent, 9% of the Moon is Illuminated
Oct 7
Waxing Crescent
Oct 11
First Quarter
Oct 18
Full
Oct 26
Last Quarter
Nov 3
New

Hourly Weather History & Observations

Time (CDT) Temp. Windchill Dew Point Humidity Pressure Visibility Wind Dir Wind Speed Gust Speed Precip Events Conditions
12:15 AM 57.2 °F - 41.0 °F 55% 29.96 in 8.0 mi Calm Calm - N/A   Clear
12:35 AM 55.4 °F - 39.2 °F 54% 29.97 in 10.0 mi NNW 5.8 mph - N/A   Clear
12:55 AM 57.2 °F - 41.0 °F 55% 29.97 in 10.0 mi NNW 6.9 mph - N/A   Clear
1:15 AM 57.2 °F - 41.0 °F 55% 29.97 in 10.0 mi NNW 8.1 mph - N/A   Clear
1:35 AM 57.2 °F - 41.0 °F 55% 29.98 in 10.0 mi NNW 5.8 mph - N/A   Clear
1:55 AM 55.4 °F - 39.2 °F 54% 29.98 in 10.0 mi NNW 5.8 mph - N/A   Clear
2:15 AM 55.4 °F - 39.2 °F 54% 29.98 in 10.0 mi NNW 6.9 mph - N/A   Clear
2:35 AM 55.4 °F - 39.2 °F 54% 29.99 in 10.0 mi NNW 5.8 mph - N/A   Clear
2:55 AM 53.6 °F - 37.4 °F 54% 29.98 in 10.0 mi North 4.6 mph - N/A   Clear
3:15 AM 53.6 °F - 37.4 °F 54% 29.99 in 10.0 mi North 3.5 mph - N/A   Clear
3:35 AM 51.8 °F - 37.4 °F 58% 29.99 in 10.0 mi North 3.5 mph - N/A   Clear
3:55 AM 51.8 °F - 35.6 °F 54% 29.98 in 10.0 mi Calm Calm - N/A   Clear
4:15 AM 50.0 °F - 35.6 °F 58% 29.99 in 10.0 mi Calm Calm - N/A   Clear
4:35 AM 50.0 °F - 33.8 °F 54% 29.99 in 6.0 mi Calm Calm - N/A   Haze
4:55 AM 48.2 °F - 33.8 °F 58% 29.99 in 5.0 mi Calm Calm - N/A   Haze
5:15 AM 48.2 °F - 33.8 °F 58% 29.99 in 6.0 mi Calm Calm - N/A   Haze
5:35 AM 48.2 °F - 33.8 °F 58% 30.00 in 1.0 mi Calm Calm - N/A   Haze
5:55 AM 48.2 °F - 32.0 °F 54% 30.00 in 0.8 mi Calm Calm - N/A   Haze
6:15 AM 48.2 °F - 32.0 °F 54% 30.00 in 9.0 mi Calm Calm - N/A   Clear
6:35 AM 46.4 °F - 32.0 °F 57% 30.00 in 9.0 mi Calm Calm - N/A   Clear
6:55 AM 46.4 °F - 32.0 °F 57% 30.00 in 0.2 mi Calm Calm - N/A   Haze
7:15 AM 46.4 °F 45.2 °F 32.0 °F 57% 30.01 in 8.0 mi NNW 3.5 mph - N/A   Clear
7:35 AM 48.2 °F - 33.8 °F 58% 30.02 in 7.0 mi Calm Calm - N/A   Clear
7:55 AM 51.8 °F - 35.6 °F 54% 30.03 in 8.0 mi Calm Calm - N/A   Clear
8:15 AM 53.6 °F - 37.4 °F 54% 30.03 in 7.0 mi NNW 4.6 mph - N/A   Clear
8:35 AM 55.4 °F - 39.2 °F 54% 30.04 in 8.0 mi North 5.8 mph - N/A   Clear
8:55 AM 57.2 °F - 41.0 °F 55% 30.05 in 9.0 mi North 5.8 mph - N/A   Clear
9:15 AM 59.0 °F - 42.8 °F 55% 30.05 in 7.0 mi NNW 5.8 mph - N/A   Clear
9:35 AM 60.8 °F - 44.6 °F 55% 30.06 in 8.0 mi North 4.6 mph - N/A   Clear
10:15 AM 64.4 °F - 48.2 °F 56% 30.06 in 9.0 mi North 6.9 mph - N/A   Clear
10:35 AM 66.2 °F - 51.8 °F 60% 30.07 in 10.0 mi NE 5.8 mph - N/A   Clear
10:55 AM 68.0 °F - 51.8 °F 56% 30.07 in 10.0 mi NNW 10.4 mph - N/A   Clear
11:15 AM 69.8 °F - 51.8 °F 53% 30.06 in 10.0 mi North 9.2 mph 16.1 mph N/A   Clear
11:35 AM 69.8 °F - 53.6 °F 56% 30.06 in 9.0 mi NNE 8.1 mph - N/A   Clear
11:55 AM 71.6 °F - 53.6 °F 53% 30.06 in 10.0 mi North 10.4 mph - N/A   Clear
12:15 PM 71.6 °F - 55.4 °F 57% 30.06 in 10.0 mi North 6.9 mph - N/A   Clear
12:35 PM 73.4 °F - 55.4 °F 53% 30.05 in 9.0 mi NNE 8.1 mph - N/A   Clear
12:55 PM 73.4 °F - 57.2 °F 57% 30.05 in 9.0 mi North 6.9 mph - N/A   Clear
1:15 PM 73.4 °F - 57.2 °F 57% 30.04 in 9.0 mi North 10.4 mph - N/A   Clear
1:35 PM 75.2 °F - 57.2 °F 53% 30.04 in 9.0 mi North 6.9 mph 18.4 mph N/A   Clear
1:55 PM 75.2 °F - 57.2 °F 53% 30.03 in 8.0 mi NW 9.2 mph 16.1 mph N/A   Clear
2:15 PM 75.2 °F - 57.2 °F 53% 30.02 in 9.0 mi North 13.8 mph - N/A   Clear
2:35 PM 75.2 °F - 59.0 °F 57% 30.02 in 9.0 mi North 5.8 mph - N/A   Clear
2:55 PM 75.2 °F - 57.2 °F 53% 30.02 in 8.0 mi North 11.5 mph - N/A   Clear
3:15 PM 75.2 °F - 59.0 °F 57% 30.02 in 9.0 mi NNW 10.4 mph 16.1 mph N/A   Clear
3:35 PM 75.2 °F - 57.2 °F 53% 30.02 in 9.0 mi North 13.8 mph 17.3 mph N/A   Clear
3:55 PM 75.2 °F - 57.2 °F 53% 30.02 in 9.0 mi NNW 10.4 mph - N/A   Clear
4:15 PM 75.2 °F - 57.2 °F 53% 30.02 in 9.0 mi North 10.4 mph - N/A   Clear
4:35 PM 73.4 °F - 57.2 °F 57% 30.02 in 9.0 mi North 11.5 mph - N/A   Clear
4:55 PM 73.4 °F - 57.2 °F 57% 30.01 in 10.0 mi North 11.5 mph - N/A   Clear
5:15 PM 73.4 °F - 55.4 °F 53% 30.02 in 10.0 mi North 10.4 mph - N/A   Clear
5:35 PM 71.6 °F - 55.4 °F 57% 30.02 in 9.0 mi North 9.2 mph - N/A   Clear
5:55 PM 69.8 °F - 53.6 °F 56% 30.02 in 8.0 mi North 6.9 mph - N/A   Clear
6:15 PM 68.0 °F - 51.8 °F 56% 30.03 in 9.0 mi North 5.8 mph - N/A   Clear
6:35 PM 64.4 °F - 48.2 °F 56% 30.04 in 9.0 mi North 4.6 mph - N/A   Clear
6:55 PM 62.6 °F - 46.4 °F 55% 30.04 in 10.0 mi NNW 3.5 mph - N/A   Clear
7:15 PM 59.0 °F - 42.8 °F 55% 30.04 in 10.0 mi Calm Calm - N/A   Clear
7:35 PM 57.2 °F - 41.0 °F 55% 30.05 in 10.0 mi Calm Calm - N/A   Clear
7:55 PM 55.4 °F - 39.2 °F 54% 30.06 in 10.0 mi Calm Calm - N/A   Clear
8:15 PM 55.4 °F - 39.2 °F 54% 30.06 in 10.0 mi Calm Calm - N/A   Clear
8:35 PM 55.4 °F - 39.2 °F 54% 30.07 in 9.0 mi Calm Calm - N/A   Clear
8:55 PM 53.6 °F - 37.4 °F 54% 30.08 in 2.0 mi Calm Calm - N/A   Haze
9:15 PM 53.6 °F - 37.4 °F 54% 30.08 in 8.0 mi North - - N/A   Clear
9:35 PM 53.6 °F - 37.4 °F 54% 30.09 in 7.0 mi Calm Calm - N/A   Clear
9:55 PM 53.6 °F - 37.4 °F 54% 30.09 in 7.0 mi Calm Calm - N/A   Clear
10:15 PM 51.8 °F - 37.4 °F 58% 30.09 in 9.0 mi Calm Calm - N/A   Clear
10:35 PM 51.8 °F - 35.6 °F 54% 30.09 in 8.0 mi North - - N/A   Clear
10:55 PM 51.8 °F - 35.6 °F 54% 30.10 in 5.0 mi Calm Calm - N/A   Haze
11:15 PM 51.8 °F - 35.6 °F 54% 30.10 in 1.0 mi Calm Calm - N/A   Haze
11:35 PM 50.0 °F - 35.6 °F 58% 30.09 in 1.8 mi Calm Calm - N/A   Haze
11:55 PM 50.0 °F - 33.8 °F 54% 30.09 in 2.5 mi Calm Calm - N/A   Haze